Location: Sungai Ketit
(2.6833°N, 113.2333°E)
Time: 21:31:49
(UTC+00:00)

Cosmos-2242 - Pass Details

Date: 23 May 2024
Orbit: 581 x 603 km, 82.5° (Epoch: 19 June)

Event Time Altitude Azimuth Distance (km) Brightness Sun altitude
Rises 11:32:48 0° 179° (S) 2,794 6.2 -15.1°
Reaches altitude 10° 11:35:00 10° 176° (S) 1,894 5.3 -15.6°
Maximum altitude 11:39:09 68° 93° (E) 628 2.8 -16.5°
Drops below altitude 10° 11:43:18 10° 11° (N) 1,892 5.7 -17.5°
Sets 11:45:29 0° 8° (N) 2,791 6.6 -18.0°
